Location: Rockford
(42.2710°N, 89.0940°W)
Time: 01:50:57
(UTC-05:00)

Daily predictions for brighter satellites

Satellite Brightness Start Highest point End
(mag) Time Altitude Azimuth Time Altitude Azimuth Time Altitude Azimuth
CZ-4B R/B 3.8 00:12:27 19° NNE 00:12:27 19° NNE 00:13:37 10° N
Meteor 1-19 Rocket 4.1 00:07:12 10° N 00:13:06 88° E 00:13:32 78° SSE
Cosmos 2285 Rocket 4.3 00:13:36 48° ESE 00:13:39 48° ESE 00:19:43 10° NNE
Cosmos 1331 Rocket 4.1 00:13:58 62° W 00:14:21 64° WNW 00:19:30 10° NNE
Meteor 2-14 Rocket 4.3 00:14:12 68° SE 00:14:41 72° E 00:20:49 10° NNE
Meteor 1-23 Rocket 4.2 00:11:08 10° N 00:16:41 64° ENE 00:16:53 64° E
Cosmos 1821 Rocket 3.9 00:16:09 67° SSW 00:17:05 86° W 00:23:22 10° N
Cosmos 1110 Rocket 4.5 00:16:22 48° W 00:17:09 53° WNW 00:22:17 10° N
Cosmos 1605 Rocket 4.1 00:16:56 56° ESE 00:17:29 58° E 00:23:46 10° NNE
Meteor 2-15 4.3 00:12:09 10° N 00:18:17 75° E 00:18:53 69° SE
H-2A R/B 4.3 00:17:21 14° WSW 00:18:49 15° W 00:21:52 10° NW
USA 229 DEB 4.0 00:15:32 10° NW 00:22:23 53° WSW 00:23:13 50° SW
USA 229 4.0 00:15:37 10° NW 00:22:30 53° WSW 00:23:20 51° SW
Iridium 4 Rocket 3.9 00:23:05 10° N 00:28:49 63° W 00:29:22 60° WSW
Cosmos 1892 Rocket 4.2 00:24:46 10° N 00:28:11 53° NNE 00:28:11 53° NNE
Okean 2 4.4 00:27:20 10° N 00:30:20 43° NNE 00:30:20 43° NNE
Cosmos 2123 Rocket 3.8 00:25:40 10° N 00:31:59 90° E 00:32:36 75° S
Cosmos 1354 Rocket 4.1 00:27:30 10° NNW 00:32:38 72° NE 00:32:38 72° NE
Landsat 5 4.2 00:35:26 55° N 00:35:26 55° N 00:38:53 10° N
Cosmos 1486 Rocket 4.4 00:32:11 10° NNW 00:37:01 54° W 00:37:01 54° W
Cosmos 1934 Rocket 3.9 00:36:52 65° WSW 00:37:31 71° W 00:43:35 10° N
NOSS 3-1 (A) 4.1 00:33:30 10° NNW 00:41:04 72° NE 00:44:02 43° SE
Cosmos 2369 Rocket 2.4 00:43:16 60° E 00:43:16 60° E 00:48:21 10° NNE
ALOS 2 3.4 00:44:55 45° NW 00:44:55 45° NW 00:48:13 10° NNW
Helios 1A Rocket 4.2 00:40:52 10° NNE 00:43:33 36° NE 00:43:33 36° NE
ISS -0.4 00:48:33 15° NNE 00:48:33 15° NNE 00:49:27 10° NE
H-2A R/B 3.1 00:42:41 10° N 00:46:31 59° NNW 00:46:31 59° NNW
Cosmos 1315 Rocket 4.2 00:54:29 36° NNW 00:54:29 36° NNW 00:57:02 10° N
Cosmos 1626 Rocket 4.4 00:52:57 10° N 00:56:30 46° NE 00:56:30 46° NE
Meteor 1-5 Rocket 4.0 00:57:58 83° NNW 00:57:58 83° NNW 01:03:11 10° N
Lacrosse 5 rocket 3.4 01:02:21 20° NE 01:02:21 20° NE 01:03:37 10° NE
Cosmos 1455 Rocket 3.8 01:01:01 50° N 01:01:01 50° N 01:04:20 10° N
ATLAS 2AS CENTAUR R/B 3.9 00:54:40 10° NNW 01:02:27 45° NE 01:08:36 15° ESE
Lacrosse 5 2.2 01:06:21 59° NE 01:06:21 59° NE 01:10:29 10° NE
CZ-2C R/B 2.6 01:01:58 10° NNE 01:06:52 74° ENE 01:06:52 74° ENE
Cosmos 1992 Rocket 4.1 01:10:48 66° ENE 01:10:48 66° ENE 01:15:27 10° NNE
NOSS 3-1 (C) 4.0 01:05:57 10° NW 01:13:30 66° WSW 01:14:47 58° SSW
CZ-2C R/B 3.0 01:19:48 75° NE 01:19:48 75° NE 01:24:33 10° N
Cosmos 1346 Rocket 4.3 01:23:56 10° NNW 01:26:14 33° NNW 01:26:14 33° NNW
GP-B 3.8 01:23:44 10° N 01:27:14 52° NNW 01:27:14 52° NNW
Cosmos 1943 Rocket 2.2 01:34:07 67° E 01:34:07 67° E 01:39:29 10° NNE
Cosmos 2100 Rocket 3.9 01:37:13 70° SW 01:37:57 79° W 01:44:22 10° N
Cosmos 1975 4.0 01:40:45 39° NNW 01:40:45 39° NNW 01:43:32 10° N
Cosmos 2263 4.3 01:40:12 63° W 01:40:34 64° WNW 01:46:12 10° NNE
Cosmos 2061 Rocket 3.9 01:40:23 69° SSW 01:41:12 82° W 01:47:39 10° N
Cosmos 44 Rocket 4.4 01:40:46 10° NNW 01:45:39 41° NE 01:47:24 31° E
SL-8 R/B 4.4 01:43:54 10° WNW 01:48:36 52° NNE 01:53:17 10° E
Cosmos 1802 Rocket 3.9 01:58:40 62° WSW 01:59:27 68° W 02:05:42 10° N
Cosmos 1953 Rocket 4.0 01:56:26 10° N 02:00:15 57° NE 02:00:15 57° NE
Cosmos 1833 4.1 01:55:30 10° NNW 02:01:05 73° WSW 02:01:05 73° WSW
Cosmos 2016 Rocket 3.8 02:01:30 67° SW 02:02:16 76° W 02:08:24 10° N
Cosmos 1459 Rocket 4.3 02:05:01 48° WSW 02:05:49 51° WNW 02:11:46 10° N
Cosmos 2098 Rocket 4.1 02:05:21 56° SSE 02:06:47 75° E 02:14:09 10° N
Cosmos 1818 3.7 02:12:06 58° W 02:12:46 63° NW 02:18:14 10° NNE
SeaSat 1 2.6 02:13:21 59° WNW 02:13:21 59° WNW 02:17:41 10° NNW
Cosmos 1726 Rocket 3.8 02:13:41 66° NE 02:13:41 66° NE 02:17:30 10° NNE
Cosmos 1825 Rocket 4.0 02:09:22 10° NNW 02:13:04 57° NW 02:13:04 57° NW
SL-08 R/B 4.4 02:12:34 31° ESE 02:13:54 38° ENE 02:18:15 10° N
Cosmos 1743 3.7 02:18:58 43° NNW 02:18:58 43° NNW 02:21:46 10° N
BREEZE-M DEB (TANK) 3.8 02:03:34 10° WNW 02:18:04 71° NNE 02:21:50 10° ESE
Cosmos 1864 Rocket 4.4 02:20:32 60° SSW 02:21:46 82° W 02:28:03 10° N
Cosmos 1842 3.8 02:19:20 10° N 02:22:49 57° NE 02:22:49 57° NE
ISS -0.2 02:21:52 10° NW 02:23:58 16° N 02:26:03 10° NE
Cosmos 968 Rocket 3.7 02:19:04 10° NNW 02:23:51 55° W 02:23:51 55° W
Cosmos 1758 Rocket 3.6 02:20:46 10° N 02:24:58 77° NNW 02:24:58 77° NNW
Cosmos 2369 Rocket 4.0 02:25:02 18° W 02:27:15 22° NW 02:31:36 10° N
Geosat 4.4 02:22:52 10° NE 02:27:46 50° ESE 02:28:15 48° SE
Meteor 2-9 Rocket 4.4 02:28:59 52° SSE 02:30:20 69° E 02:36:08 10° NNE
Cosmos 2219 3.0 02:25:11 10° NNW 02:30:51 81° WSW 02:31:46 63° S
NOSS 3-3 (A) 4.0 02:31:06 54° S 02:32:29 71° ESE 02:39:08 10° NE
NOSS 3-3 (C) 4.0 02:31:12 54° S 02:32:35 70° ESE 02:39:14 10° NE
ARIANE 5 R/B 4.5 02:29:09 10° NE 02:32:55 20° E 02:35:16 15° SE
Cosmos 1725 Rocket 4.0 02:34:24 52° SW 02:35:40 63° W 02:41:48 10° N
Cosmos 44 4.1 02:33:41 10° NNW 02:38:49 53° NE 02:42:36 16° SE
Cosmos 2227 Rocket 3.7 02:34:07 10° N 02:39:19 35° ENE 02:44:28 10° ESE
Cosmos 1340 3.1 02:35:40 10° N 02:38:47 58° N 02:38:47 58° N
Tsikada Rocket 4.1 02:33:23 10° NNW 02:39:33 61° W 02:40:51 50° SW
Lacrosse 5 rocket 3.6 02:38:04 13° NW 02:39:35 16° NNW 02:41:59 10° NNE
CZ-2D R/B 4.2 02:36:18 10° NE 02:40:08 19° E 02:43:29 11° SE
Cosmos 1816 Rocket 4.4 02:33:57 10° N 02:40:12 76° W 02:41:53 51° SSW
Cosmos 2208 Rocket 4.0 02:40:15 61° SSE 02:41:02 72° ESE 02:46:16 10° NNE
Meteor 2-17 Rocket 4.4 02:39:52 50° S 02:41:35 83° E 02:47:44 10° N
SL-16 R/B 4.0 02:37:51 10° SE 02:43:15 33° ENE 02:48:40 10° N
Lacrosse 5 3.7 02:45:31 14° WNW 02:48:52 26° NNW 02:53:08 10° NNE
Cosmos 1777 Rocket 4.1 02:48:30 10° NNW 02:53:34 52° WSW 02:53:44 52° WSW
ATLAS 2AS CENTAUR R/B 3.2 02:45:55 10° NW 02:53:38 50° WSW 02:55:57 39° SSW
PSLV R/B 4.3 02:50:11 10° N 02:54:17 39° WNW 02:54:30 39° WNW
Cosmos 1666 3.3 02:55:17 47° NW 02:55:17 47° NW 02:58:30 10° N
CBERS-1 4.0 02:51:33 10° NNE 02:56:44 82° ESE 02:58:00 52° S
USA 161 3.4 02:57:20 26° E 02:57:32 26° ENE 03:00:03 10° NNE
IRS-P3 4.1 02:54:10 10° N 02:59:30 69° WNW 03:00:48 50° SW
Cosmos 405 Rocket 4.2 02:56:47 10° N 03:00:34 35° ENE 03:02:38 21° SE
Cosmos 2297 Rocket 3.6 02:56:12 10° N 03:01:27 37° ENE 03:06:39 10° SE
ATLAS CENTAUR R/B 3.7 03:03:58 16° SE 03:05:53 20° ESE 03:09:32 10° ENE
IRAS Rocket 4.2 03:04:13 10° NNE 03:09:52 85° WNW 03:11:52 42° SSW
Cosmos 2228 3.4 03:12:56 44° W 03:13:13 45° WNW 03:17:22 10° N
GEOS 3 Rocket 3.7 03:11:36 10° SE 03:16:49 77° NE 03:22:00 10° NNW
Cosmos 1943 Rocket 4.0 03:15:38 15° W 03:18:12 20° NW 03:22:20 10° N
NPP 3.9 03:14:44 10° N 03:19:59 54° WNW 03:21:45 38° SW
Cosmos 2058 Rocket 4.4 03:25:00 24° W 03:25:24 24° WNW 03:29:01 10° NNW
AQUA 4.2 03:23:35 10° N 03:28:11 49° WNW 03:29:32 38° WSW
Cosmos 2150 Rocket 4.2 03:25:52 10° NNW 03:31:08 72° ENE 03:36:17 10° SSE
SL-8 R/B 3.7 03:26:33 10° WNW 03:31:13 53° SW 03:35:51 10° SE
Cosmos 1812 Rocket 3.6 03:29:59 45° SW 03:31:13 67° W 03:35:41 10° N
Resurs 1-4 Rocket 2.6 03:28:37 10° NNE 03:33:49 56° E 03:37:12 21° S
Cosmos 468 Rocket 4.2 03:32:14 29° S 03:34:51 65° ESE 03:39:59 10° NNE
Cosmos 1464 Rocket 4.0 03:35:08 30° SSW 03:38:26 72° W 03:44:46 10° N
Cosmos 1707 2.7 03:36:33 10° N 03:40:30 89° W 03:42:16 32° S
ERS-2 2.8 03:39:12 10° N 03:42:44 41° WNW 03:43:27 37° WSW
BREEZE-M DEB (TANK) 2.7 03:42:37 10° WNW 03:45:37 33° W 03:45:37 33° W
ADEOS 3.9 03:44:50 10° N 03:49:53 50° WNW 03:52:23 28° SW
Cosmos 1898 Rocket 3.4 03:45:29 10° NNW 03:50:50 76° WSW 03:56:09 10° SSE
NOSS 2-1 (D) 3.4 03:49:20 35° SSW 03:50:54 73° ESE 03:55:18 10° NE
NOSS 2-1 (C) 3.4 03:50:37 34° SSW 03:52:14 73° ESE 03:56:38 10° NE
Okean 3 Rocket 3.5 03:50:11 10° NNW 03:54:35 70° W 03:57:17 22° S
Meteor 2-5 Rocket 3.9 03:49:19 10° NNW 03:55:03 57° W 03:59:14 19° SSW
Cosmos 1092 Rocket 4.5 03:49:33 10° N 03:55:46 62° E 04:02:01 10° SSE
BREEZE-M DEB 3.7 03:56:38 29° NW 03:57:40 78° NNE 04:00:38 10° ESE
BREEZE-M DEB (TANK) 2.9 03:56:13 16° WNW 03:58:09 43° N 04:01:45 10° ENE
BREEZE-M DEB (TANK) 3.1 03:55:47 20° WSW 03:59:32 67° NNW 04:02:09 10° NE
SME Rocket 4.1 03:55:33 18° S 03:59:32 62° W 04:07:14 10° NNW
ISS -1.1 03:58:19 10° NW 04:01:11 27° NNE 04:04:03 10° E
GPS 2-04 Rocket1 4.1 04:01:21 21° S 04:01:51 22° SSE 04:04:48 10° ESE
Cosmos 1656 3.8 04:02:20 20° SSW 04:06:25 80° ESE 04:12:07 10° NNE
NOSS 2-1 (E) 3.4 04:05:12 28° SW 04:07:17 85° NW 04:11:51 10° NE
ASTRO E2 4.4 04:07:59 17° S 04:08:01 17° S 04:10:44 10° SE
Cosmos 1937 Rocket 3.4 04:03:26 10° NNW 04:08:36 74° WSW 04:13:47 10° S
Cosmos 841 Rocket 4.1 04:04:53 13° S 04:09:27 56° ESE 04:14:37 10° NNE
Cosmos 2082 3.9 04:04:31 10° NW 04:09:55 48° WSW 04:15:17 10° S
ARIANE 5 R/B 2.9 04:07:22 10° N 04:12:17 49° WNW 04:15:36 20° SW
Cosmos 1697 Rocket 2.9 04:10:27 15° SSW 04:15:08 70° ESE 04:20:47 10° NNE
NOSS 3-4 (A) 3.8 04:09:24 10° NW 04:16:25 88° SW 04:23:51 10° SSE
NOSS 3-4 (C) 3.8 04:09:30 10° NW 04:16:33 89° WSW 04:24:01 10° SSE
Cosmos 1763 Rocket 3.6 04:14:36 15° SSW 04:19:04 78° ESE 04:24:17 10° NNE
UNK 4.4 04:16:49 10° WNW 04:19:57 22° N 04:21:50 10° NE
Meteor 2-12 Rocket 4.4 04:15:23 15° SSW 04:20:27 68° W 04:26:30 10° N
CZ-2D R/B 2.4 04:15:12 10° N 04:20:35 58° WNW 04:24:49 16° SSW
Cosmos 1980 Rocket 3.0 04:16:25 10° S 04:21:46 48° ESE 04:27:11 10° NE
Thor Agena Rocket 4.4 04:17:49 10° SE 04:22:41 51° ENE 04:27:34 10° N
MTI 3.8 04:20:08 14° S 04:22:50 59° W 04:26:07 10° NNW
Cosmos 2227 Rocket 2.8 04:18:13 10° NW 04:23:21 35° WSW 04:28:25 10° S
MOS 1-B 4.4 04:19:49 10° N 04:25:36 68° WNW 04:30:48 13° SSW
SL-16 R/B 2.9 04:21:04 11° SSW 04:26:44 41° W 04:32:33 10° NNW
CZ-2D R/B 3.5 04:23:04 10° N 04:27:23 80° WNW 04:31:26 12° SSW
USA 161 3.9 04:28:29 11° W 04:28:29 11° W 04:29:05 10° WNW
Cosmos 2322 Rocket 4.3 04:27:00 10° SSE 04:31:13 22° E 04:35:25 10° NE
Cosmos 1766 3.6 04:29:22 17° SSW 04:32:14 48° W 04:36:05 10° N
IRS-1D 4.3 04:27:48 10° N 04:32:15 34° WNW 04:35:49 15° SW
Okean O Rocket 1.7 04:28:56 10° NNE 04:33:20 82° ESE 04:37:45 10° S
Lacrosse 5 4.4 04:30:30 10° NW 04:33:26 15° N 04:36:23 10° NNE
Cosmos 1758 3.4 04:32:42 10° S 04:36:45 85° E 04:40:48 10° N
Cosmos 1437 3.5 04:36:52 10° N 04:40:10 57° ENE 04:43:27 10° SSE
Cosmos 1500 Rocket 4.5 04:36:15 10° N 04:40:35 51° E 04:44:51 10° SSE
BREEZE-M DEB (TANK) 2.9 04:36:46 14° SW 04:40:56 81° SE 04:45:14 10° ENE
UNKNOWN OBJECT B 3.5 04:38:04 10° N 04:41:45 37° WNW 04:44:49 13° SW
Cosmos 1544 4.0 04:38:22 10° S 04:41:56 49° E 04:45:29 10° NNE
Cosmos 1655 Rocket 4.3 04:36:28 10° N 04:42:54 75° E 04:49:17 10° SSE
NOSS 7 (D) 4.4 04:41:27 15° SW 04:44:15 75° NW 04:47:40 10° NNE
Cosmos 1743 Rocket 3.6 04:39:56 10° N 04:44:17 84° E 04:48:37 10° S
Cosmos 1953 2.3 04:40:16 10° SSW 04:44:18 76° W 04:48:22 10° N
ATLAS CENTAUR R/B 2.1 04:40:19 14° SW 04:44:38 58° NW 04:49:35 10° NNE
Cosmos 2297 Rocket 2.9 04:40:24 10° NW 04:45:24 33° WSW 04:50:22 10° SSW
IRS-1C Rocket 4.1 04:40:44 10° N 04:46:00 74° WNW 04:51:13 10° SSW
ADEOS II 3.7 04:45:31 10° NNE 04:50:19 35° E 04:55:06 10° SSE
USA 81 4.1 04:48:39 10° S 04:53:56 90° W 04:59:15 10° N
Cosmos 1076 Rocket 4.3 04:50:50 10° NNW 04:54:41 32° W 04:58:29 10° SSW
Cosmos 540 Rocket 4.1 04:52:58 10° S 04:58:01 58° ESE 05:03:07 10° NNE
PAYLOAD B 4.3 04:55:03 10° N 05:00:38 73° WNW 05:06:13 10° SSW
SL-16 R/B 3.6 04:56:15 10° S 05:01:24 37° ESE 05:06:33 10° NE
Cosmos 2151 4.4 04:59:47 10° N 05:03:56 43° ENE 05:08:01 10° SSE
CZ-2C R/B 4.2 05:00:32 10° S 05:05:00 42° W 05:09:26 10° NNW
EP 1 4.4 05:05:48 10° SW 05:08:14 55° NW 05:10:51 10° NNE
Cosmos 1805 3.8 05:05:27 10° SSW 05:09:10 41° WNW 05:12:54 10° N
RESURS DK-1 3.7 05:05:38 10° NNW 05:09:39 46° ENE 05:13:38 10° SE
Okean-O 3.0 05:06:37 10° NNE 05:11:04 69° ESE 05:15:28 10° S
